Location: Newark
(45.9456°N, 15.4064°E)
Time: 17:46:23
(UTC+00:00)

SR - Pass Details

Date: 03 February 2020
Orbit: 575 x 880 km, 66.7° (Epoch: 22 February)

Event Time Altitude Azimuth Distance (km) Brightness Sun altitude
Rises 05:28:10 0° 310° (NW) 3,320 - -9.2°
Reaches altitude 10° 05:32:04 10° 284° (WNW) 2,312 - -8.5°
Exits shadow 05:32:15 10° 282° (WNW) 2,279 ? -8.5°
Maximum altitude 05:34:17 13° 259° (WSW) 2,080 ? -8.2°
Drops below altitude 10° 05:36:26 10° 233° (SW) 2,217 ? -7.8°
Sets 05:40:01 0° 205° (SSW) 3,053 ? -7.2°
